Location: Kaarina
(60.4167°N, 22.4167°E)
Time: 16:21:53
(UTC+03:00)

Cosmos 1602 - Pass Details

Date: 24 August 2019
Orbit: 515 x 534 km, 82.5° (Epoch: 16 September)

Event Time Altitude Azimuth Distance (km) Brightness Sun altitude
Rises 21:54:21 0° 204° (SSW) 2,631 7.2 -6.6°
Reaches altitude 10° 21:56:30 10° 209° (SSW) 1,747 6.3 -6.8°
Maximum altitude 22:00:16 56° 289° (WNW) 621 4.5 -7.2°
Drops below altitude 10° 22:04:05 10° 9° (N) 1,762 6.8 -7.6°
Sets 22:06:16 0° 13° (NNE) 2,656 7.7 -7.8°
